EW5847 Weather Reports


time (UTC)temp
F
wind
direction
speed
knots
gust
knots
rain 1hr
in
rain 24hr
in
rain mn
in
humidity
%
barometer
mb
20260508060252 38 320 0.0 3.5 0.00 0.00 0.00 69 1006.4
20260508055752 38 342 0.0 2.6 0.00 0.00 0.00 68 1006.6
20260508055251 39 345 0.0 0.9 0.00 0.00 0.00 67 1006.4
20260508055015 39 345 0.0 0.0 0.00 0.00 0.00 68 1006.5
20260508054232 39 345 0.0 0.0 0.00 0.00 0.00 68 1006.5
20260508053953 39 345 0.0 0.0 0.00 0.00 0.00 68 1006.6
20260508053223 40 345 0.0 0.0 0.00 0.00 0.00 68 1006.6
20260508052723 40 345 0.0 0.0 0.00 0.00 0.00 69 1006.7
20260508052222 40 344 0.0 0.0 0.00 0.00 0.00 70 1006.8
20260508051722 40 345 0.0 0.0 0.00 0.00 0.00 70 1006.8
20260508051222 40 345 0.0 0.0 0.00 0.00 0.00 70 1006.8
20260508050722 41 345 0.0 0.0 0.00 0.00 0.00 69 1006.8
20260508050221 41 345 0.0 0.0 0.00 0.00 0.00 68 1006.9
20260508045723 41 345 0.0 0.0 0.00 0.00 0.00 68 1006.9
20260508045448 42 345 0.0 0.0 0.00 0.00 0.00 69 1006.9
20260508044705 42 345 0.0 0.0 0.00 0.00 0.00 69 1006.9
20260508044155 42 345 0.0 0.0 0.00 0.00 0.00 70 1006.8
20260508043654 42 345 0.0 0.0 0.00 0.00 0.00 70 1006.9
20260508043155 43 345 0.0 0.0 0.00 0.00 0.00 71 1006.9
20260508042655 43 345 0.0 0.0 0.00 0.00 0.00 70 1006.9
20260508042155 43 345 0.0 0.0 0.00 0.00 0.00 69 1006.9
20260508041654 43 345 0.0 0.0 0.00 0.00 0.00 67 1006.8
20260508041154 43 345 0.0 0.0 0.00 0.01 0.00 67 1006.8
20260508040653 43 345 0.0 0.0 0.00 0.02 0.00 67 1006.9
20260508040425 44 345 0.0 0.0 0.00 0.03 0.00 67 1007.0
20260508035651 44 345 0.0 0.0 0.00 0.04 0.04 67 1007.0
20260508035139 44 345 0.0 0.0 0.00 0.05 0.04 68 1007.0
20260508034632 44 345 0.0 0.0 0.00 0.05 0.04 67 1007.0
20260508034401 44 345 0.0 0.0 0.00 0.05 0.04 68 1007.0
20260508033627 44 345 0.0 0.0 0.00 0.05 0.04 67 1006.9
20260508033120 45 345 0.0 0.0 0.00 0.05 0.04 63 1006.9
20260508032841 45 345 0.0 0.0 0.00 0.05 0.04 61 1006.9
20260508032103 45 345 0.0 0.0 0.00 0.05 0.04 59 1006.9
20260508031601 45 345 0.0 0.0 0.00 0.05 0.04 58 1006.9
20260508031055 46 345 0.0 0.0 0.00 0.05 0.04 60 1006.9
20260508030549 46 345 0.0 0.0 0.00 0.05 0.04 60 1007.0
20260508030039 46 345 0.0 0.0 0.00 0.05 0.04 60 1007.0
20260508025533 46 344 0.0 0.0 0.00 0.05 0.04 63 1007.0
20260508025031 46 345 0.0 0.0 0.00 0.05 0.04 63 1007.0
20260508024525 47 345 0.0 0.0 0.00 0.05 0.04 61 1007.0
20260508024019 47 345 0.0 0.0 0.00 0.05 0.04 56 1006.9
20260508023509 47 344 0.0 0.0 0.00 0.05 0.04 53 1006.8
20260508023003 47 345 0.0 0.0 0.00 0.05 0.04 52 1006.8
20260508022457 47 345 0.0 0.0 0.00 0.05 0.04 52 1006.7
20260508021955 47 345 0.0 0.0 0.00 0.05 0.04 54 1006.6
20260508021448 48 345 0.0 0.0 0.00 0.05 0.04 57 1006.6
20260508021214 48 345 0.0 0.0 0.00 0.05 0.04 62 1006.6
20260508020433 48 345 0.0 0.0 0.00 0.05 0.04 64 1006.6
20260508015927 48 345 0.0 2.6 0.00 0.05 0.04 58 1006.5
20260508015426 48 345 0.0 2.6 0.00 0.05 0.04 51 1006.4
20260508014919 48 345 0.0 2.6 0.00 0.05 0.04 52 1006.2
20260508014409 48 345 0.0 2.6 0.00 0.05 0.04 51 1006.2
20260508013902 48 323 0.9 2.6 0.00 0.05 0.04 51 1006.2
20260508013402 49 323 0.9 4.3 0.00 0.05 0.04 52 1006.0
20260508012902 49 325 0.0 4.3 0.00 0.05 0.04 51 1006.0
20260508012633 49 341 0.0 0.0 0.00 0.05 0.04 60 1006.1
20260508012135 49 341 0.0 0.0 0.00 0.05 0.04 60 1005.9
20260508011402 50 341 0.0 0.0 0.00 0.05 0.04 59 1005.9
20260508010902 50 341 0.0 0.0 0.00 0.05 0.04 58 1005.7
20260508010404 50 342 0.0 0.0 0.00 0.06 0.04 58 1005.7
20260508005900 51 342 0.0 0.0 0.00 0.06 0.04 55 1005.7
20260508005631 51 341 0.0 0.0 0.00 0.06 0.04 56 1005.6
20260508005129 51 342 0.0 0.0 0.00 0.06 0.04 55 1005.5
20260508004359 52 341 0.0 1.7 0.00 0.06 0.04 52 1005.4
20260508003856 52 341 0.0 1.7 0.00 0.06 0.04 51 1005.3
20260508003357 52 341 0.0 1.7 0.00 0.06 0.04 50 1005.2
20260508002857 53 341 0.0 1.7 0.00 0.06 0.04 54 1005.2
20260508002622 53 341 0.0 1.7 0.00 0.06 0.04 50 1004.9
20260508001839 54 341 0.0 1.7 0.00 0.06 0.04 47 1004.8
20260508001339 54 341 0.0 1.7 0.00 0.06 0.04 43 1004.8
20260508000841 54 341 0.0 0.9 0.00 0.06 0.04 44 1004.7
20260508000342 55 341 0.0 0.0 0.00 0.06 0.04 47 1004.7
20260507235841 55 341 0.0 0.0 0.00 0.06 0.04 44 1004.7
20260507235611 56 341 0.0 4.3 0.00 0.06 0.04 45 1004.7
20260507234839 56 341 0.0 4.3 0.00 0.06 0.04 46 1004.6
20260507234341 56 341 0.9 4.3 0.00 0.06 0.04 40 1004.6
20260507233841 56 342 0.9 5.2 0.00 0.06 0.04 34 1004.6
20260507233335 56 346 1.7 7.0 0.00 0.06 0.04 35 1004.6
20260507232823 56 340 1.7 10.4 0.00 0.06 0.04 34 1004.5
20260507232324 57 329 1.7 10.4 0.00 0.06 0.04 35 1004.4
20260507232054 57 342 2.6 10.4 0.00 0.06 0.04 35 1004.4
20260507231325 57 317 2.6 10.4 0.00 0.06 0.04 33 1004.3
20260507230823 57 342 3.5 8.7 0.00 0.06 0.04 34 1004.2
20260507230324 57 295 3.5 8.7 0.00 0.06 0.04 34 1004.2
20260507225824 58 297 3.5 9.6 0.00 0.06 0.04 34 1004.1
20260507225323 58 295 3.5 9.6 0.00 0.06 0.04 33 1004.0
20260507224824 58 308 3.5 8.7 0.00 0.06 0.04 33 1003.9
20260507224320 58 341 2.6 13.9 0.00 0.06 0.04 34 1004.0
20260507223806 58 319 3.5 13.9 0.00 0.06 0.04 33 1003.9
20260507223257 59 322 5.2 13.9 0.00 0.06 0.04 32 1003.9
20260507222747 59 322 5.2 13.9 0.00 0.06 0.04 32 1003.9
20260507222236 59 348 4.3 13.9 0.00 0.06 0.04 33 1003.8
20260507221730 60 332 4.3 14.8 0.00 0.06 0.04 32 1003.7
20260507221458 60 312 5.2 14.8 0.00 0.06 0.04 31 1003.5
20260507220725 61 310 5.2 14.8 0.00 0.06 0.04 31 1003.7
20260507220225 61 292 5.2 14.8 0.00 0.06 0.04 32 1003.7
20260507215727 61 336 4.3 11.3 0.00 0.06 0.04 31 1003.7
20260507215227 61 297 4.3 11.3 0.00 0.06 0.04 31 1003.7
20260507214725 62 284 5.2 15.6 0.00 0.06 0.04 32 1003.7
20260507214224 62 290 5.2 15.6 0.00 0.06 0.04 30 1003.6
20260507213726 62 228 5.2 13.0 0.00 0.06 0.04 30 1003.7
20260507213224 62 315 4.3 13.0 0.00 0.07 0.04 31 1003.7
20260507212723 62 330 5.2 13.0 0.00 0.07 0.04 30 1003.6
20260507212225 62 340 6.1 13.9 0.00 0.07 0.04 30 1003.6
20260507211723 62 344 5.2 14.8 0.00 0.07 0.04 30 1003.6
20260507211225 62 5 4.3 14.8 0.00 0.08 0.04 30 1003.5
20260507210723 62 0 5.2 13.0 0.00 0.08 0.04 30 1003.5
20260507210226 62 306 6.1 14.8 0.00 0.09 0.04 30 1003.5
20260507205721 63 330 5.2 14.8 0.00 0.09 0.04 30 1003.4
20260507205221 63 316 6.1 17.4 0.00 0.10 0.04 31 1003.4
20260507204721 63 349 6.1 17.4 0.00 0.11 0.04 32 1003.4
20260507204217 63 296 5.2 15.6 0.00 0.12 0.04 32 1003.3
20260507204212 63 345 6.1 15.6 0.00 0.13 0.04 32 1003.3
20260507203158 63 273 4.3 13.0 0.00 0.14 0.04 31 1003.3
20260507202658 62 216 5.2 14.8 0.00 0.14 0.04 31 1003.3
20260507202146 62 336 5.2 14.8 0.00 0.15 0.04 33 1003.3
20260507202140 63 342 6.1 14.8 0.00 0.15 0.04 30 1003.3
20260507201134 63 277 6.1 14.8 0.00 0.15 0.04 33 1003.4
20260507200628 63 270 7.0 14.8 0.00 0.15 0.04 31 1003.3
20260507200123 63 333 6.1 14.8 0.00 0.16 0.04 32 1003.4
20260507195617 63 260 4.3 13.0 0.00 0.16 0.04 32 1003.5
20260507195106 64 296 4.3 13.0 0.00 0.16 0.04 31 1003.4
20260507194604 63 348 5.2 13.0 0.00 0.16 0.04 30 1003.5
20260507194058 63 313 5.2 14.8 0.00 0.17 0.04 28 1003.5
20260507193553 63 13 3.5 14.8 0.00 0.17 0.04 33 1003.5
20260507193319 63 175 2.6 11.3 0.00 0.24 0.04 33 1003.4
20260507192536 63 53 4.3 12.2 0.00 0.25 0.04 33 1003.5
20260507192034 63 342 4.3 12.2 0.00 0.26 0.04 31 1003.6
20260507191528 64 348 5.2 13.9 0.00 0.27 0.04 35 1003.6
20260507191253 63 322 5.2 13.9 0.00 0.27 0.04 33 1003.7
20260507190516 63 315 2.6 10.4 0.00 0.28 0.04 32 1003.7
20260507190006 63 325 3.5 11.3 0.00 0.29 0.04 37 1003.7
20260507185504 63 331 5.2 13.0 0.00 0.29 0.04 34 1003.7
20260507184958 63 13 5.2 13.0 0.00 0.30 0.04 31 1003.7
20260507184452 63 327 5.2 13.0 0.00 0.31 0.04 29 1003.8
20260507184447 63 5 4.3 10.4 0.00 0.31 0.04 33 1003.7
20260507183436 63 254 5.2 13.9 0.00 0.31 0.04 32 1003.7
20260507182934 62 329 5.2 13.9 0.00 0.31 0.04 33 1003.8
20260507182425 62 347 5.2 12.2 0.00 0.31 0.04 33 1003.9
20260507181922 61 298 6.1 13.0 0.00 0.31 0.04 32 1003.9
20260507181418 62 325 5.2 13.9 0.00 0.31 0.04 39 1004.0
20260507180906 61 90 6.1 13.9 0.00 0.31 0.04 41 1003.9
20260507180635 61 274 5.2 13.0 0.00 0.31 0.04 39 1003.9
20260507175854 61 273 5.2 13.0 0.00 0.31 0.04 43 1004.1
20260507175353 62 323 6.1 13.0 0.00 0.31 0.04 39 1004.0
20260507175118 62 281 6.1 13.9 0.00 0.31 0.04 41 1004.0
20260507174341 62 340 5.2 14.8 0.00 0.31 0.04 42 1004.1
20260507173834 62 5 5.2 14.8 0.00 0.31 0.04 41 1004.1
20260507173328 62 272 5.2 14.8 0.00 0.31 0.04 42 1004.0
20260507172823 62 338 5.2 13.0 0.00 0.31 0.04 45 1004.0
20260507172312 61 323 5.2 13.9 0.00 0.31 0.04 45 1004.2
20260507172042 60 267 5.2 17.4 0.00 0.31 0.04 46 1004.4
20260507171309 60 289 7.0 17.4 0.00 0.31 0.04 44 1004.4
20260507171041 59 323 7.0 17.4 0.00 0.31 0.04 43 1004.4
20260507170309 59 286 6.1 13.9 0.00 0.31 0.04 48 1004.3
20260507165810 60 272 5.2 13.0 0.00 0.31 0.04 45 1004.6
20260507165310 60 191 5.2 13.9 0.00 0.31 0.04 45 1004.5
20260507164815 60 340 6.1 13.9 0.00 0.31 0.04 46 1004.6
20260507164811 60 257 5.2 13.9 0.00 0.31 0.04 44 1004.5
20260507163808 60 275 7.0 15.6 0.00 0.31 0.04 45 1004.7
20260507163310 61 312 6.1 15.6 0.00 0.31 0.04 45 1004.6
20260507163042 62 306 7.0 14.8 0.00 0.31 0.04 48 1004.5
20260507162309 62 33 6.1 14.8 0.00 0.31 0.04 46 1004.6
20260507161810 62 290 5.2 12.2 0.00 0.31 0.04 47 1004.7
20260507161312 61 286 6.1 13.0 0.00 0.31 0.04 47 1004.7
20260507160810 60 0 5.2 13.0 0.00 0.31 0.04 48 1004.6
20260507160311 60 288 4.3 11.3 0.00 0.31 0.04 48 1004.8
20260507155809 59 282 5.2 11.3 0.00 0.31 0.04 47 1004.9
20260507155539 59 355 4.3 13.9 0.00 0.31 0.04 50 1005.1
20260507154810 59 332 4.3 13.9 0.00 0.31 0.04 51 1005.1
20260507154309 59 13 4.3 11.3 0.00 0.31 0.04 51 1005.1
20260507154039 60 275 4.3 11.3 0.00 0.31 0.04 49 1005.1
20260507153309 60 263 3.5 12.2 0.00 0.31 0.04 51 1005.0
20260507152809 60 297 4.3 12.2 0.00 0.31 0.04 49 1005.2
20260507152540 60 274 5.2 13.9 0.00 0.31 0.04 46 1005.1
20260507151809 60 304 5.2 13.9 0.00 0.31 0.04 47 1005.2
20260507151308 60 290 3.5 8.7 0.00 0.31 0.04 47 1005.2
20260507150811 60 350 1.7 11.3 0.00 0.31 0.04 51 1005.2
20260507150310 60 329 2.6 11.3 0.00 0.31 0.04 53 1005.2
20260507145810 60 321 4.3 11.3 0.00 0.31 0.04 52 1005.2
20260507145308 60 319 4.3 11.3 0.00 0.31 0.04 51 1005.2
20260507144809 60 285 4.3 10.4 0.00 0.31 0.04 52 1005.2
20260507144303 60 320 3.5 10.4 0.00 0.31 0.04 51 1005.3
20260507144024 59 336 3.5 9.6 0.00 0.31 0.04 54 1005.2
20260507143246 59 350 3.5 7.8 0.00 0.31 0.04 56 1005.2
20260507142746 58 288 2.6 8.7 0.00 0.31 0.04 56 1005.3
20260507142245 58 275 1.7 8.7 0.00 0.31 0.04 57 1005.3
20260507141745 57 355 0.9 4.3 0.00 0.31 0.04 59 1005.4
20260507141246 57 252 0.0 3.5 0.00 0.31 0.04 58 1005.4
20260507140746 56 299 0.0 3.5 0.00 0.31 0.04 64 1005.5
20260507140516 55 295 1.7 7.0 0.00 0.31 0.04 65 1005.6
20260507135745 55 295 2.6 7.0 0.00 0.31 0.04 64 1005.6
20260507135244 55 263 2.6 7.8 0.00 0.31 0.04 64 1005.8
20260507134745 54 346 3.5 7.8 0.00 0.31 0.04 66 1005.8
20260507134246 54 336 3.5 8.7 0.00 0.31 0.04 66 1005.8
20260507133748 54 260 3.5 8.7 0.00 0.31 0.04 67 1005.8
20260507133244 53 345 2.6 8.7 0.00 0.31 0.04 70 1005.8
20260507132744 53 292 3.5 8.7 0.00 0.31 0.04 69 1005.8
20260507132246 53 308 2.6 7.0 0.00 0.31 0.04 71 1005.9
20260507131745 52 355 2.6 7.8 0.00 0.31 0.04 73 1005.9
20260507131245 52 316 3.5 8.7 0.00 0.31 0.04 74 1006.0
20260507130739 52 272 3.5 8.7 0.00 0.31 0.04 74 1006.0
20260507130227 51 272 1.7 8.7 0.00 0.31 0.04 75 1006.0
20260507125717 51 325 2.6 7.0 0.00 0.31 0.04 79 1006.1
20260507125435 50 339 2.6 7.0 0.00 0.31 0.04 78 1006.1
20260507124651 50 339 1.7 6.1 0.00 0.31 0.04 79 1006.1
20260507124139 49 284 1.7 6.1 0.00 0.31 0.04 80 1006.0
20260507123634 49 317 1.7 5.2 0.00 0.31 0.04 82 1006.1
20260507123133 49 329 1.7 6.1 0.00 0.31 0.04 82 1006.1
20260507122630 49 320 0.9 6.1 0.00 0.31 0.04 84 1006.1
20260507122130 49 281 0.9 6.1 0.00 0.31 0.04 83 1006.1
20260507121630 48 283 0.9 6.1 0.00 0.31 0.04 86 1006.1
20260507121128 48 298 1.7 7.0 0.00 0.31 0.04 85 1006.1
20260507120859 48 329 0.9 7.0 0.00 0.31 0.04 88 1006.1
20260507120131 47 336 0.9 4.3 0.00 0.31 0.04 89 1006.1
20260507115900 47 336 0.9 4.3 0.00 0.31 0.04 89 1006.1
20260507115129 47 0 0.0 3.5 0.00 0.31 0.04 91 1006.2
20260507114902 47 342 0.0 0.9 0.00 0.31 0.04 91 1006.3
20260507114358 47 342 0.0 3.5 0.00 0.31 0.04 91 1006.2
20260507113625 46 342 0.0 3.5 0.00 0.31 0.04 91 1006.2
20260507113125 47 340 0.0 0.0 0.00 0.31 0.04 91 1006.0
20260507112625 47 340 0.0 0.0 0.00 0.31 0.04 91 1006.0
20260507112118 47 340 0.0 0.0 0.00 0.31 0.04 91 1005.9
20260507111607 46 340 0.0 2.6 0.00 0.31 0.04 92 1006.1
20260507111105 46 340 0.0 2.6 0.00 0.31 0.04 92 1006.2
20260507110559 46 337 0.0 0.0 0.00 0.31 0.04 92 1006.3
20260507110053 46 337 0.0 0.0 0.00 0.31 0.04 91 1006.3
20260507105545 46 337 0.0 0.0 0.00 0.31 0.04 91 1006.4
20260507105035 46 337 0.0 0.0 0.00 0.31 0.04 92 1006.4
20260507104529 46 337 0.0 0.0 0.00 0.31 0.04 92 1006.1
20260507104027 46 337 0.0 0.0 0.00 0.31 0.04 91 1006.1
20260507103515 46 337 0.0 0.0 0.00 0.31 0.04 91 1006.3
20260507103009 46 337 0.0 0.0 0.00 0.31 0.04 91 1006.7
20260507102507 46 337 0.0 0.0 0.00 0.31 0.04 91 1006.3
20260507102002 46 337 0.0 0.0 0.00 0.31 0.04 91 1006.3
20260507101456 46 337 0.0 0.0 0.00 0.31 0.04 91 1006.3
20260507100949 46 337 0.0 0.0 0.00 0.31 0.04 90 1006.5
20260507100439 46 337 0.0 0.0 0.00 0.31 0.04 90 1006.1
20260507095938 46 337 0.0 0.0 0.00 0.31 0.04 89 1006.1
20260507095932 46 337 0.0 0.0 0.00 0.31 0.04 89 1006.2
20260507095158 46 337 0.0 0.0 0.00 0.31 0.04 89 1006.3
20260507094419 46 337 0.0 0.0 0.00 0.31 0.04 89 1006.1
20260507094141 46 337 0.0 0.0 0.00 0.31 0.04 89 1005.9
20260507093402 46 337 0.0 0.0 0.00 0.31 0.04 89 1005.8
20260507092901 46 337 0.0 2.6 0.00 0.31 0.04 89 1005.7
20260507092355 47 337 0.0 2.6 0.00 0.31 0.04 88 1006.0
20260507091849 47 345 0.0 0.0 0.00 0.31 0.04 89 1005.7
20260507091339 47 345 0.0 0.0 0.00 0.31 0.04 88 1005.2
20260507090833 47 345 0.0 0.9 0.00 0.31 0.04 89 1005.5
20260507090332 47 345 0.0 0.9 0.00 0.31 0.04 89 1005.4
20260507085825 47 345 0.0 3.5 0.00 0.31 0.04 88 1005.6
20260507085320 47 345 0.0 3.5 0.00 0.31 0.04 89 1005.8
20260507084809 47 265 0.0 0.0 0.00 0.31 0.04 89 1005.6
20260507084308 47 264 0.0 0.0 0.00 0.31 0.04 89 1005.7
20260507083801 48 264 0.0 0.0 0.00 0.31 0.04 89 1005.7
20260507083251 48 265 0.0 0.0 0.00 0.31 0.04 89 1005.9
20260507082749 48 265 0.0 0.9 0.00 0.31 0.04 88 1006.0
20260507082239 48 265 0.9 4.3 0.00 0.31 0.04 87 1006.2
20260507081737 49 344 0.9 4.3 0.00 0.31 0.04 89 1005.9
20260507081232 49 349 0.0 1.7 0.00 0.31 0.04 90 1005.4
20260507080721 49 350 0.0 3.5 0.00 0.31 0.04 90 1005.2
20260507080219 49 355 0.0 3.5 0.00 0.31 0.04 91 1005.1
20260507075710 50 302 0.0 0.0 0.00 0.31 0.04 92 1005.3
20260507075438 50 302 0.0 0.0 0.00 0.31 0.04 92 1005.6
20260507074701 50 301 0.0 0.0 0.00 0.31 0.04 92 1005.4
20260507074157 50 301 0.0 1.7 0.00 0.31 0.04 92 1005.3
20260507073649 50 301 0.0 1.7 0.00 0.31 0.04 91 1005.4
20260507073139 50 301 0.0 1.7 0.00 0.31 0.04 92 1005.2
20260507072637 50 301 0.0 1.7 0.00 0.31 0.04 91 1005.1
20260507072131 50 300 0.0 0.0 0.00 0.31 0.04 91 1005.1
20260507071625 50 300 0.0 0.0 0.00 0.31 0.04 92 1005.1
20260507071119 50 300 0.0 0.0 0.00 0.31 0.04 92 1004.9
20260507070609 50 300 0.0 0.0 0.00 0.31 0.04 92 1004.9
20260507070107 50 300 0.0 0.0 0.00 0.31 0.04 91 1004.9
20260507065601 50 300 0.0 0.0 0.00 0.31 0.04 91 1004.9
20260507065055 51 300 0.0 0.0 0.00 0.31 0.04 91 1005.0
20260507064549 51 300 0.0 0.0 0.00 0.31 0.04 91 1004.8
20260507064039 51 300 0.0 0.0 0.00 0.31 0.04 91 1004.8
20260507063537 51 300 0.0 0.0 0.00 0.31 0.04 91 1004.8
20260507063031 51 300 0.0 0.0 0.00 0.31 0.04 91 1004.7
20260507062525 51 300 0.0 0.0 0.00 0.31 0.04 91 1004.7
20260507062020 51 300 0.0 3.5 0.00 0.31 0.04 91 1004.6
20260507061509 51 300 0.0 3.5 0.00 0.31 0.04 92 1004.6
20260507061007 52 300 0.0 3.5 0.00 0.31 0.04 92 1004.6